Maxwell AFB, AL

1:38 AM CDT on October 18, 2017 (GMT -0500)
Maxwell Air Force Base

Weather History for KMXF - May, 2013

Change the Weather History Date:

Monday, May 27, 2013

  Actual Average Record
Temperature  
Mean Temperature 76 °F -  
Max Temperature 90 °F 84 °F 98 °F (2000)
Min Temperature 62 °F 65 °F 57 °F (2005)
Cooling Degree Days 11    
Growing Degree Days 26 (Base 50)    
Moisture  
Dew Point 60 °F    
Average Humidity 64    
Maximum Humidity 94    
Minimum Humidity 29    
Precipitation  
Precipitation 0.00 in - - ()
Sea Level Pressure  
Sea Level Pressure 30.15 in    
Wind  
Wind Speed 2 mph (SSW)    
Max Wind Speed 8 mph    
Max Gust Speed 16 mph    
Visibility 10 miles    
Events      
Averages and records for this station are not official NWS values.
T = Trace of Precipitation, MM = Missing Value Source: NWS Daily Summary

Daily Weather History Graph

Daily Weather History Graph

Search for Another Location

Airport or City:

Trip Planner

Search our weather history database for the weather conditions in past years. The results will help you decide how hot, cold, wet, or windy it might be!

Date:

Astronomy

May. 27, 2013 Rise Set
Actual Time 5:40 AM CDT 7:44 PM CDT
Civil Twilight 5:13 AM CDT 8:12 PM CDT
Nautical Twilight 4:39 AM CDT 8:46 PM CDT
Astronomical Twilight 4:03 AM CDT 9:22 PM CDT
Moon 10:27 PM CDT (5/27) 8:15 AM CDT (5/27)
Length of Visible Light 14h 59m
Length of Day
14h 04m
Waning Gibbous, 91% of the Moon is Illuminated
May 27
Waning Gibbous
May 31
Last Quarter
Jun 8
New
Jun 16
First Quarter
Jun 23
Full

Hourly Weather History & Observations

Time (CDT) Temp. Heat Index Dew Point Humidity Pressure Visibility Wind Dir Wind Speed Gust Speed Precip Events Conditions
12:58 AM 65.7 °F - 60.3 °F 83% 30.16 in 10.0 mi Calm Calm - N/A   Clear
1:58 AM 63.9 °F - 60.8 °F 90% 30.15 in 10.0 mi Calm Calm - N/A   Clear
2:58 AM 63.0 °F - 60.3 °F 91% 30.15 in 10.0 mi Calm Calm - N/A   Clear
3:58 AM 63.5 °F - 60.4 °F 90% 30.16 in 10.0 mi Calm Calm - N/A   Mostly Cloudy
4:58 AM 62.2 °F - 60.1 °F 93% 30.17 in 10.0 mi Calm Calm - N/A   Mostly Cloudy
5:58 AM 62.1 °F - 60.3 °F 94% 30.19 in 10.0 mi NW 1.2 mph - N/A   Mostly Cloudy
6:58 AM 64.9 °F - 62.4 °F 92% 30.21 in 10.0 mi East 1.2 mph - N/A   Overcast
7:58 AM 72.0 °F - 64.2 °F 77% 30.22 in 10.0 mi West 1.2 mph - N/A   Overcast
8:58 AM 76.6 °F - 66.7 °F 71% 30.22 in 10.0 mi Calm Calm - N/A   Overcast
9:58 AM 80.2 °F 82.1 °F 65.3 °F 60% 30.21 in 10.0 mi Variable 2.3 mph - N/A   Mostly Cloudy
10:58 AM 83.8 °F 84.9 °F 63.3 °F 50% 30.20 in 10.0 mi Variable 2.3 mph - N/A   Overcast
11:58 AM 86.9 °F 86.3 °F 59.2 °F 39% 30.18 in 10.0 mi South 8.1 mph - N/A   Clear
12:58 PM 86.4 °F 85.6 °F 58.8 °F 39% 30.17 in 10.0 mi SSE 5.8 mph - N/A   Scattered Clouds
1:58 PM 89.1 °F 87.3 °F 55.9 °F 32% 30.14 in 10.0 mi Variable 5.8 mph 16.1 mph N/A   Clear
2:58 PM 90.3 °F 88.1 °F 54.1 °F 29% 30.12 in 10.0 mi South 8.1 mph - N/A   Clear
3:58 PM 90.0 °F 87.9 °F 54.3 °F 30% 30.11 in 10.0 mi Variable 5.8 mph - N/A   Clear
4:58 PM 89.4 °F 87.5 °F 54.7 °F 31% 30.10 in 10.0 mi SSE 8.1 mph - N/A   Clear
5:58 PM 86.4 °F 84.9 °F 55.4 °F 35% 30.09 in 10.0 mi South 4.6 mph - N/A   Scattered Clouds
6:58 PM 82.9 °F 83.3 °F 61.0 °F 47% 30.08 in 10.0 mi WSW 1.2 mph - N/A   Clear
7:58 PM 77.7 °F - 62.2 °F 59% 30.08 in 10.0 mi Calm Calm - N/A   Partly Cloudy
8:58 PM 73.2 °F - 62.1 °F 68% 30.09 in 10.0 mi Calm Calm - N/A   Clear
9:58 PM 71.1 °F - 63.1 °F 76% 30.10 in 10.0 mi Calm Calm - N/A   Clear
10:58 PM 68.9 °F - 64.8 °F 87% 30.11 in 10.0 mi Variable 1.2 mph - N/A   Clear
11:58 PM 68.0 °F - 60.3 °F 76% 30.13 in 10.0 mi Calm Calm - N/A   Clear